This is the latest recevied weather packets stored in our database for station/object N0KTA-2. If no packets are shown the sender has not sent any weather packets the latest 10 day(s).
| Time | Temp. | Humidity | Pressure | Rain* | Wind** | Luminosity | Snow |
|---|---|---|---|---|---|---|---|
| 1777567764 | 15.56° C | 59% | 1016.6 hPa | 0 mm | - | - | - |
| 1777567163 | 15° C | 61% | 1016.6 hPa | 0 mm | - | - | - |
| 1777566564 | 15° C | 57% | 1016.7 hPa | 0 mm | - | - | - |
| 1777565963 | 15° C | 58% | 1016.8 hPa | 0 mm | - | - | - |
| 1777565364 | 14.44° C | 61% | 1016.7 hPa | 0 mm | - | - | - |
| 1777564763 | 14.44° C | 64% | 1016.7 hPa | 0 mm | - | - | - |
| 1777564164 | 13.89° C | 63% | 1016.7 hPa | 0 mm | - | - | - |
| 1777563563 | 13.33° C | 66% | 1016.8 hPa | 0 mm | - | - | - |
| 1777562964 | 13.33° C | 67% | 1017.2 hPa | 0 mm | - | - | - |
| 1777562364 | 12.78° C | 67% | 1017.3 hPa | 0 mm | - | - | - |
| 1777561765 | 12.78° C | 68% | 1017.3 hPa | 0 mm | - | - | - |
| 1777561166 | 12.78° C | 69% | 1017.2 hPa | 0 mm | - | - | - |
| 1777560565 | 12.78° C | 71% | 1017.2 hPa | 0 mm | - | - | - |
| 1777559966 | 12.22° C | 70% | 1017 hPa | 0 mm | - | - | - |
| 1777559366 | 12.22° C | 71% | 1016.9 hPa | 0 mm | - | - | - |
| 1777558767 | 11.67° C | 70% | 1017.2 hPa | 0 mm | - | - | - |
| 1777558165 | 11.67° C | 73% | 1017.1 hPa | 0 mm | - | - | - |
| 1777557566 | 11.11° C | 74% | 1016.8 hPa | 0 mm | - | - | - |
| 1777556965 | 11.11° C | 73% | 1016.9 hPa | 0 mm | - | - | - |
| 1777556365 | 11.11° C | 73% | 1016.8 hPa | 0 mm | - | - | - |
| 1777555766 | 10.56° C | 75% | 1016.8 hPa | 0 mm | - | - | - |
| 1777555165 | 10° C | 76% | 1016.9 hPa | 0 mm | - | - | - |
| 1777554566 | 9.44° C | 81% | 1017.1 hPa | 0 mm | - | - | - |
| 1777553966 | 9.44° C | 81% | 1016.9 hPa | 0 mm | - | - | - |
| 1777553365 | 8.89° C | 82% | 1016.8 hPa | 0 mm | - | - | - |
* Rain latest hour (hover to see other rain measurements)
** Current wind speed in m/s (hover to see current wind gust speed)